GEFSNGP_con_probscp_270.txt.gz
Probability
0 0 0 0 0 0 0 0 0 2 7 13 17 20 20 21 23 29 37 43 50 55 55 51 48 48 49 48 46 47 48 49 49 48 47 45 45 46 46 43 38 36 36 36
0 0 0 0 0 0 0 0 0 2 7 14 18 19 19 20 23 29 38 46 52 56 57 54 50 49 49 46 44 44 46 48 49 48 46 45 45 47 47 44 41 39 39 39
0 0 0 0 0 0 0 0 0 2 8 13 16 18 19 20 24 31 40 49 55 60 62 59 54 51 48 44 41 41 42 45 46 45 43 44 45 47 48 47 44 43 43 43
0 0 0 0 0 0 0 0 1 3 7 10 12 16 21 23 26 33 41 48 55 59 61 60 57 52 48 45 40 38 37 39 41 41 42 43 44 45 46 47 46 45 45 44
0 0 0 0 0 0 0 1 2 4 7 8 10 16 24 28 30 36 42 47 50 52 54 56 55 52 49 45 41 36 35 37 39 41 42 44 44 43 45 48 47 45 44 43
0 0 0 0 0 0 1 4 7 9 10 11 14 21 29 33 36 40 46 48 47 47 49 51 53 53 50 45 41 39 39 40 42 43 45 46 46 44 45 48 47 43 42 42
0 0 0 1 1 3 10 16 16 15 16 20 26 31 35 38 40 44 48 48 47 48 51 53 55 57 54 48 45 45 45 45 46 47 46 46 46 45 44 45 43 41 41 41
1 4 8 10 10 15 25 31 27 23 24 28 34 37 37 38 39 43 45 46 46 51 55 58 59 60 60 56 54 53 52 50 49 49 46 44 45 44 41 39 38 37 37 37
5 11 20 22 22 25 29 32 30 27 27 29 32 35 35 36 37 40 42 43 45 49 54 57 59 62 64 64 63 60 56 54 51 49 45 44 44 42 37 36 34 33 32 31
12 16 20 21 21 22 21 22 22 23 24 25 27 31 35 38 41 40 41 44 45 46 49 53 56 59 62 64 66 62 57 53 50 45 42 43 43 38 33 33 32 31 30 30
15 15 14 13 13 13 13 13 15 19 22 25 28 31 35 41 43 41 40 43 45 45 45 50 55 57 58 61 63 61 56 51 45 39 35 36 36 31 27 26 27 27 28 29
16 16 16 15 13 11 10 11 14 20 24 28 30 33 37 40 40 39 39 40 42 44 46 49 53 55 57 59 62 60 55 49 42 34 30 30 29 26 21 18 16 16 19 21
19 20 22 21 16 13 13 14 16 18 22 26 29 33 36 37 37 37 38 38 39 41 44 47 49 51 56 60 61 59 52 46 41 35 31 30 29 27 23 17 12 9 8 8
20 21 22 20 16 15 15 15 15 16 18 21 24 27 30 32 33 33 34 35 37 40 43 45 47 49 53 57 58 53 46 40 38 36 33 31 30 29 27 25 21 14 7 4
16 16 16 15 13 13 14 13 13 13 13 14 17 20 25 28 30 30 30 32 34 37 41 44 48 52 53 52 52 48 40 36 35 33 31 30 29 27 27 28 26 20 14 10
9 10 10 11 10 9 9 10 10 10 9 11 14 18 22 27 28 27 27 28 30 33 38 44 50 54 54 50 47 44 38 34 33 31 29 28 28 25 25 26 26 22 19 19
6 6 8 10 9 7 7 8 9 8 8 11 16 19 22 25 26 26 26 27 29 30 35 42 49 53 53 49 45 40 36 33 32 31 30 28 26 23 23 24 24 22 22 22
5 5 7 8 8 6 6 7 8 8 9 14 17 21 23 24 24 24 25 28 30 30 32 37 41 45 46 44 41 38 34 32 32 32 31 29 26 23 21 21 21 21 20 19
4 4 5 6 6 5 5 6 7 7 10 14 17 21 23 23 21 21 23 27 29 30 32 33 33 35 37 36 35 34 34 33 32 31 29 27 25 23 20 19 19 18 17 15
3 3 3 4 4 4 5 6 6 7 10 12 15 19 23 23 21 20 22 26 27 29 31 30 28 28 30 29 27 27 29 30 30 27 24 23 23 22 20 18 16 15 14 13
5 4 4 4 4 5 6 6 7 9 11 12 14 17 20 21 21 22 23 23 24 25 26 24 22 22 22 20 18 18 22 25 25 23 20 20 20 21 19 17 13 11 10 10
7 6 6 5 6 7 9 9 9 11 13 14 15 15 17 18 19 21 22 21 19 18 18 18 16 13 13 14 14 15 17 19 19 19 18 17 18 19 19 16 13 10 9 8
8 7 6 7 8 10 11 11 10 11 13 14 14 15 17 17 16 16 16 15 13 12 13 13 10 7 9 13 14 14 14 14 15 15 15 14 14 15 16 15 13 11 10 10
5 6 7 7 8 10 11 10 10 10 10 11 12 14 16 15 13 11 8 7 7 8 8 7 4 4 8 13 14 13 12 12 12 12 11 10 10 12 13 13 12 12 12 13
2 3 6 7 7 7 8 8 7 6 6 7 8 10 11 10 9 8 6 4 3 4 4 3 2 4 8 11 12 11 10 10 10 9 8 7 8 10 12 13 12 11 12 13
0 1 4 6 6 5 6 6 5 4 4 4 6 8 9 8 6 5 5 5 5 4 3 3 3 4 5 8 9 8 8 8 8 7 6 5 6 8 11 12 12 11 12 13
0 1 3 5 5 5 5 4 4 3 3 4 5 8 9 8 6 4 5 6 6 5 4 3 3 3 3 4 6 7 6 6 6 6 6 5 5 7 9 11 10 10 12 13

GEFSNGP_con_probscp_276.txt.gz
Probability
0 0 0 0 0 0 0 0 1 2 2 2 7 16 22 23 22 24 26 27 29 30 28 25 23 21 20 19 19 19 17 14 13 14 17 21 23 24 22 20 17 17 19 20
0 0 0 0 0 0 0 0 2 4 4 5 11 20 25 25 24 26 26 26 26 26 26 24 22 22 20 18 17 17 16 14 14 14 15 17 19 20 20 21 21 22 23 23
0 0 0 0 0 0 0 1 4 7 9 11 15 22 26 26 26 26 23 21 21 21 21 21 23 24 22 20 18 16 16 16 15 15 14 13 14 16 18 21 24 27 28 28
0 0 0 0 0 0 2 4 6 9 12 15 18 21 22 23 24 22 18 17 19 20 19 20 24 24 23 22 21 19 18 18 18 17 15 15 15 16 19 22 25 27 29 28
0 0 0 0 0 1 4 7 7 9 12 14 17 19 18 17 18 17 15 16 20 21 20 21 23 22 21 21 22 20 19 19 20 20 19 18 18 18 20 23 25 26 27 26
0 0 0 1 1 2 5 7 6 7 9 11 14 16 15 13 14 15 15 17 21 22 21 21 22 21 20 20 21 21 20 20 21 23 22 19 18 18 19 21 23 25 25 25
0 0 1 2 2 3 5 6 6 6 9 10 12 13 13 13 14 15 16 18 21 22 21 20 22 23 22 21 22 22 21 21 22 23 22 20 16 15 16 17 20 22 23 24
0 1 2 4 4 4 6 7 7 8 11 14 16 16 15 15 16 16 17 19 20 21 20 19 22 24 24 23 23 23 23 23 23 23 22 20 16 14 14 15 17 19 20 20
4 5 6 7 6 6 7 8 9 12 15 18 19 19 17 16 16 17 18 20 20 20 21 21 23 25 25 24 24 25 25 24 23 22 21 20 18 16 15 15 16 17 17 17
10 9 9 8 6 6 7 9 12 15 17 18 18 19 18 16 15 16 19 21 21 22 25 26 27 26 25 25 25 26 26 25 24 22 20 20 19 18 15 14 15 15 16 17
10 8 7 5 3 3 5 8 12 15 16 16 17 18 18 17 17 18 20 23 24 26 29 31 31 29 26 25 25 25 25 25 24 22 20 19 19 17 14 11 11 12 14 15
6 5 3 3 2 3 4 6 10 13 14 14 15 17 18 20 20 21 23 25 27 29 31 31 31 29 26 24 25 25 25 24 22 21 19 18 18 16 12 9 7 6 7 9
2 3 3 3 3 3 4 6 8 11 11 11 12 14 17 19 20 21 23 24 26 28 29 30 29 27 25 24 26 27 27 25 23 21 21 20 19 17 14 10 7 4 2 2
1 2 2 2 3 3 4 6 7 8 9 10 10 11 13 16 18 20 19 19 22 25 26 27 27 27 26 25 26 27 27 26 25 25 25 24 22 21 19 16 13 8 3 1
0 1 1 1 1 2 4 6 6 7 7 8 8 8 9 11 14 16 15 16 19 20 21 22 24 25 26 25 25 25 25 25 27 28 27 26 25 24 24 23 20 15 8 4
0 0 0 0 0 1 4 6 6 6 7 7 7 6 7 8 10 11 12 14 15 16 16 16 19 21 23 24 23 24 25 25 26 27 26 26 26 26 26 26 24 19 13 8
1 0 0 0 0 1 4 6 6 6 6 6 6 6 6 7 8 9 9 10 11 12 11 11 14 17 18 19 20 22 26 28 27 26 25 25 25 26 26 26 24 20 14 11
2 1 0 0 0 1 3 4 4 4 5 6 6 7 7 7 8 8 8 8 8 8 8 7 9 12 13 13 16 20 25 27 26 25 25 25 24 25 25 24 22 19 15 11
2 1 0 0 0 1 2 3 3 3 4 5 6 7 7 8 8 9 8 7 7 7 6 6 7 9 9 10 12 17 20 22 22 22 23 24 23 23 23 22 20 19 16 13
1 0 0 0 0 1 2 3 3 3 3 4 5 6 6 6 7 8 7 7 6 6 6 5 5 6 6 8 10 13 16 18 19 19 20 20 20 20 19 19 18 17 15 14
0 0 0 0 1 2 3 3 3 3 3 3 4 4 3 3 5 6 6 6 6 6 6 4 3 4 4 6 10 13 16 17 17 17 15 14 14 13 12 13 13 12 11 11
0 0 0 1 2 2 3 3 3 3 3 3 3 2 1 1 3 4 4 4 5 6 5 4 3 3 3 5 9 14 15 15 14 12 9 8 7 5 4 5 6 6 6 7
1 1 1 1 2 3 3 3 3 3 3 2 1 1 0 0 1 2 3 3 4 4 4 3 2 3 3 5 8 12 12 11 9 7 5 4 3 2 2 2 2 3 4 5
2 2 2 2 3 3 3 3 3 2 1 1 0 0 0 0 0 1 3 3 3 2 2 1 1 1 2 4 6 8 8 5 4 4 3 3 3 3 4 4 3 3 4 5
3 2 2 2 2 3 3 3 2 1 0 0 0 0 0 0 1 1 2 2 1 1 1 0 0 0 1 2 3 4 4 2 1 2 2 3 3 3 3 4 4 3 3 4
3 3 2 2 2 2 2 2 1 0 0 0 0 0 0 1 2 2 2 1 0 0 0 0 0 0 1 1 2 2 1 1 1 1 1 1 2 1 2 2 3 3 3 3
3 3 3 2 1 1 1 1 0 0 0 0 0 0 0 1 2 3 1 0 0 0 0 0 0 1 2 2 1 0 0 1 2 2 2 1 1 1 2 2 3 3 3 3

GEFSNGP_con_probscp_282.txt.gz
Probability
0 0 0 0 0 0 0 0 0 0 0 0 2 5 6 6 8 10 11 11 11 10 9 9 11 10 8 7 7 7 6 6 6 5 4 3 3 3 4 6 9 11 12 11
0 0 0 0 0 0 0 0 0 0 0 0 2 5 7 8 9 11 12 13 13 12 10 9 10 11 10 9 8 6 5 5 7 7 5 3 3 3 3 5 8 10 11 11
0 0 0 0 0 0 0 0 0 0 0 1 4 6 7 9 11 13 14 15 15 13 10 8 9 11 12 11 9 7 6 6 7 7 6 6 5 4 4 6 8 11 12 12
0 0 0 0 0 0 0 0 0 1 1 3 6 7 6 8 10 12 14 15 14 12 8 7 8 11 13 13 11 9 7 6 7 7 8 9 10 10 8 10 12 14 14 13
0 0 0 0 0 0 0 0 1 2 3 5 7 7 6 6 7 10 12 11 10 9 6 5 6 10 13 13 12 9 8 7 8 8 10 12 14 14 13 13 13 15 15 15
0 0 0 0 0 1 1 1 1 3 5 7 7 6 6 5 6 9 10 10 8 7 5 3 4 7 10 11 11 10 9 9 9 10 13 15 16 16 14 13 12 12 12 13
0 0 0 0 0 1 2 1 1 3 5 7 7 6 6 6 7 9 11 10 9 8 5 3 4 6 8 10 10 10 10 10 10 11 14 16 16 15 14 12 11 10 10 9
0 0 0 0 0 1 1 1 2 4 6 7 8 8 9 9 9 9 9 9 9 8 5 4 5 6 7 9 10 10 11 11 11 13 15 16 15 15 14 13 12 12 11 10
0 0 0 0 0 0 0 1 2 4 8 9 10 11 12 11 10 8 7 7 7 7 6 5 5 5 6 9 11 12 13 14 14 16 16 16 15 15 15 15 16 16 14 13
0 0 0 1 1 1 1 1 2 6 9 11 12 12 12 11 9 7 6 6 6 8 9 8 6 4 5 8 11 13 15 17 18 18 18 16 15 15 16 16 17 17 16 15
1 0 1 2 2 2 2 3 4 8 11 13 13 12 10 8 8 8 8 8 8 8 9 8 6 3 4 7 10 12 15 17 17 17 16 15 15 15 15 15 15 14 14 14
1 0 1 2 2 2 3 4 6 10 14 15 13 10 6 4 4 5 7 8 7 7 7 7 5 4 6 7 8 11 13 14 14 13 13 13 14 14 14 13 13 11 10 10
1 0 0 1 1 3 4 5 7 10 13 13 10 7 4 1 1 2 4 6 6 7 7 8 8 8 10 10 10 11 12 12 12 12 12 13 13 14 15 14 12 9 6 5
0 0 0 0 1 2 3 4 5 6 9 9 7 6 3 1 1 1 3 5 7 8 9 11 11 11 12 12 13 14 13 11 11 11 12 13 14 15 16 17 16 13 8 4
0 0 0 0 0 1 2 3 3 3 5 6 4 4 3 2 1 2 5 7 7 7 8 11 12 11 11 13 14 15 14 11 10 10 11 13 15 15 15 16 17 16 13 10
0 0 0 0 0 0 1 2 2 1 2 2 2 1 1 2 2 3 5 7 7 6 6 8 9 9 8 10 12 14 14 12 10 10 12 14 15 15 14 14 15 17 17 17
0 0 0 0 0 0 0 1 1 0 1 1 1 0 1 2 2 3 3 4 5 4 3 4 4 5 6 6 8 10 12 11 10 11 12 13 14 14 13 14 16 16 17 17
0 0 0 0 0 0 0 0 0 0 1 2 3 2 3 3 3 2 2 2 2 2 2 3 3 4 5 5 5 7 9 10 11 11 11 11 12 12 12 14 16 15 15 14
0 0 0 0 0 0 0 0 0 0 0 2 4 5 5 4 3 3 2 2 2 2 3 3 3 4 5 6 6 5 7 9 10 11 11 11 11 11 12 13 14 13 12 11
0 0 0 0 0 0 0 0 0 0 0 1 3 4 4 3 3 2 2 2 2 2 2 2 2 3 3 5 5 6 6 7 8 9 10 11 11 11 11 12 13 12 11 10
0 0 0 0 0 0 0 0 0 0 0 1 3 3 3 1 1 1 1 1 1 1 1 1 1 1 1 2 3 5 6 6 6 6 6 8 10 11 11 11 11 10 9 9
0 0 0 0 0 0 0 0 0 0 0 2 3 3 2 1 0 0 0 0 0 0 1 1 0 0 0 0 1 3 4 4 4 4 4 6 7 9 8 8 8 6 6 6
0 0 0 0 0 0 0 0 0 0 1 2 3 2 1 0 0 0 0 0 0 0 1 1 0 0 0 0 0 1 2 3 3 3 4 5 6 6 6 5 5 4 4 5
0 0 0 0 0 0 0 1 1 1 2 2 2 1 0 0 0 0 0 0 0 0 0 0 0 0 0 0 1 1 2 3 2 2 3 3 3 3 3 4 4 3 3 3
0 0 0 0 0 1 1 2 2 3 2 1 1 0 0 0 0 0 0 0 0 0 0 0 0 0 0 1 2 2 3 2 1 1 1 1 1 2 2 3 3 2 2 2
0 0 0 1 1 2 3 3 3 3 2 1 0 0 0 0 0 0 0 0 0 0 0 0 0 0 0 1 3 3 3 3 1 1 1 0 0 1 1 1 1 1 0 1
0 0 1 2 2 3 3 3 3 3 1 0 0 0 0 0 0 0 0 0 0 0 0 0 0 0 1 2 3 3 3 3 2 2 1 0 0 0 0 0 0 0 0 0

GEFSNGP_con_probscp_288.txt.gz
Probability
0 0 0 0 0 0 0 0 0 0 2 6 9 9 9 8 7 9 16 22 27 31 35 37 34 30 28 27 25 23 20 18 19 21 22 24 26 23 20 17 16 17 20 22
0 0 0 0 0 0 0 0 0 0 2 6 8 10 10 9 8 9 15 21 25 29 33 35 35 33 30 28 25 23 21 19 19 19 20 23 25 24 22 21 20 21 22 23
0 0 0 0 0 0 0 0 0 1 3 7 10 12 12 10 10 11 15 20 23 26 28 31 32 33 31 28 25 22 21 20 19 18 19 20 22 23 24 23 24 24 23 23
0 0 0 0 0 0 0 0 0 2 5 9 12 14 14 14 13 15 18 21 25 26 26 26 29 31 30 29 27 25 23 21 20 19 19 20 21 23 25 24 24 25 23 22
0 0 0 0 0 0 0 0 1 2 6 10 13 14 16 18 20 21 23 26 27 26 23 24 27 30 31 31 31 30 27 24 22 21 20 20 22 25 27 26 25 25 23 22
0 0 0 0 1 0 0 1 3 6 9 13 14 15 18 22 25 27 28 29 28 24 22 23 25 28 32 32 32 32 30 27 26 25 24 23 25 26 26 25 25 24 21 20
0 0 0 1 3 3 4 7 11 13 15 16 17 19 22 23 25 28 30 31 29 26 25 25 26 28 30 30 30 30 29 30 32 32 29 28 29 29 28 26 23 21 20 19
1 2 3 4 7 9 12 15 18 19 20 21 21 23 24 25 25 26 28 31 31 30 31 30 29 29 28 29 30 29 28 30 33 34 33 32 33 33 34 30 24 20 20 21
5 6 8 10 12 14 16 17 18 20 23 24 24 25 27 28 28 26 26 29 31 32 33 31 29 27 26 27 29 28 27 28 29 30 31 32 32 33 34 31 25 21 21 22
11 12 13 13 13 15 17 16 16 19 23 25 26 27 29 30 30 27 25 28 30 31 31 30 28 26 24 25 26 26 24 24 25 26 27 28 28 28 29 29 25 23 23 23
15 15 15 14 13 14 17 18 17 18 20 24 27 27 28 30 29 27 27 29 30 30 28 28 29 27 25 25 25 23 23 22 22 22 23 24 24 23 22 22 20 19 20 20
14 15 15 15 14 14 17 19 19 19 20 22 24 25 25 25 25 26 27 27 28 27 26 27 29 29 28 29 27 23 22 23 22 21 22 23 22 20 16 12 9 9 10 11
12 12 13 15 15 16 17 19 19 18 19 19 20 20 21 19 19 20 21 22 23 23 23 24 26 28 28 29 28 25 22 23 24 24 24 23 22 19 15 10 5 4 3 3
11 11 12 14 16 17 17 17 16 16 16 16 16 16 16 15 14 15 16 18 20 19 19 20 23 24 23 24 26 26 23 22 24 26 26 24 23 21 19 15 11 9 7 4
9 10 11 13 15 16 15 14 13 14 15 13 12 13 14 14 13 14 15 17 19 18 18 20 22 23 21 21 23 24 23 22 24 26 26 25 23 23 21 20 17 15 13 10
6 8 11 12 12 13 12 11 11 13 14 14 12 13 15 16 14 14 15 18 18 18 18 19 21 20 19 19 20 20 20 19 20 22 23 21 21 22 22 21 20 18 16 14
4 6 10 11 11 11 10 10 11 13 14 14 14 15 17 16 14 14 15 17 17 16 16 17 18 16 15 16 16 16 16 15 14 16 17 16 16 18 19 19 19 17 16 15
2 4 7 8 9 10 11 11 11 11 10 11 12 13 14 14 13 14 15 15 15 14 14 14 14 13 13 13 13 13 12 11 12 13 13 12 13 14 15 16 16 16 14 13
2 3 5 7 9 10 11 10 9 7 6 6 7 10 12 12 12 14 14 13 13 13 12 11 11 11 11 10 9 9 8 9 10 11 11 11 11 12 12 13 14 15 14 13
5 5 6 8 9 10 10 8 6 5 4 4 6 9 11 11 12 14 13 12 12 12 11 10 10 10 10 8 6 5 5 6 8 9 9 10 10 10 10 11 12 13 12 12
6 6 7 9 9 9 7 6 5 4 3 4 6 7 9 10 11 12 11 11 12 11 10 10 9 10 9 6 5 4 3 4 5 6 7 9 9 10 9 9 9 10 10 10
6 6 6 7 8 7 6 5 3 3 2 3 3 4 4 6 8 7 7 8 9 7 6 7 7 6 5 3 3 3 2 2 2 3 4 6 8 8 8 7 7 7 8 8
4 4 4 5 5 4 3 2 1 1 1 1 1 1 1 2 3 3 3 4 4 2 2 4 3 2 1 1 1 1 1 1 1 1 1 3 4 5 6 6 6 6 6 6
3 3 3 3 3 2 1 0 0 0 0 0 0 0 0 0 1 1 1 1 1 0 0 1 1 0 0 0 0 0 1 1 1 1 1 1 3 4 5 5 5 5 4 3
2 2 2 2 1 1 0 0 0 0 0 0 0 0 0 0 0 0 0 0 0 0 0 0 0 0 0 0 0 0 1 2 2 2 1 2 3 3 4 4 4 3 2 1
1 1 1 1 0 0 0 0 0 0 0 0 0 0 0 0 0 0 0 0 0 0 0 0 0 0 0 0 0 0 0 1 1 1 2 2 2 3 3 3 3 3 2 1
0 0 0 0 0 0 0 0 0 0 0 0 0 0 0 0 0 0 0 0 0 0 0 0 0 0 0 0 1 1 1 0 0 1 2 2 2 2 3 3 3 3 3 3

GEFSNGP_con_probscp_294.txt.gz
Probability
0 0 0 0 0 0 0 0 1 1 3 8 10 8 7 8 9 13 21 27 34 42 49 52 51 52 52 48 48 48 43 40 40 38 33 31 33 32 28 25 23 25 26 26
0 0 0 0 0 0 0 0 0 0 3 8 10 9 10 11 12 15 21 27 33 41 48 52 51 50 50 49 49 50 46 42 41 39 35 34 36 35 31 28 26 27 29 28
0 0 1 0 0 0 1 1 1 1 4 9 12 12 13 16 18 21 25 30 34 40 47 49 48 48 48 48 50 52 49 45 42 41 38 37 37 37 36 33 30 29 31 31
0 0 0 0 1 1 2 3 4 4 5 9 14 15 16 21 26 29 33 35 37 41 44 45 45 47 48 48 51 52 49 46 44 43 41 38 37 38 39 38 34 32 33 33
1 0 0 1 2 2 2 3 5 6 7 11 16 18 21 27 33 35 38 39 38 39 41 44 47 49 48 48 51 51 48 46 46 46 44 42 40 40 41 42 40 36 34 34
2 1 1 2 2 1 2 4 8 8 11 16 21 25 30 36 39 40 40 38 37 37 41 47 51 51 49 47 48 48 46 46 47 47 46 45 44 44 44 44 43 39 35 34
3 2 2 3 4 5 9 13 15 14 17 23 30 35 40 41 42 43 40 37 36 39 43 47 50 52 51 47 46 46 46 46 46 45 45 44 45 46 45 45 44 41 37 35
6 6 7 9 12 16 23 25 23 23 26 31 37 41 41 41 43 44 42 38 38 40 43 45 48 50 49 47 45 45 45 44 44 43 42 42 44 45 44 44 44 43 41 39
13 13 16 19 22 25 26 26 26 30 35 37 38 38 38 40 44 45 43 41 39 39 41 45 48 49 46 44 43 43 44 43 43 42 41 42 43 41 40 41 43 42 40 37
18 17 18 21 23 23 22 20 22 27 33 36 36 34 36 41 45 44 44 44 42 39 40 44 47 47 45 42 42 42 42 42 42 42 42 41 41 38 37 38 39 37 34 32
19 18 17 16 18 19 19 18 18 20 23 28 31 31 36 42 45 44 45 46 44 39 39 41 44 45 44 44 43 41 41 42 42 41 39 38 37 35 32 31 29 27 26 25
17 18 17 16 16 17 18 18 17 17 19 23 27 30 35 42 44 42 41 42 41 37 36 39 41 43 45 47 46 45 44 43 42 40 38 35 34 31 26 20 16 13 14 15
20 19 18 17 16 15 15 17 19 21 22 24 26 29 34 39 40 38 36 35 35 32 31 35 39 41 44 47 48 47 43 40 40 41 38 34 32 31 26 18 11 8 5 4
23 21 19 18 17 14 14 17 22 24 23 23 24 26 29 33 35 34 32 32 31 28 26 28 33 35 38 42 43 42 37 33 35 38 36 32 30 30 28 23 18 13 7 4
21 20 20 21 19 17 17 19 23 23 22 21 22 23 26 30 31 32 31 30 29 27 25 26 29 32 33 35 36 35 32 29 29 30 29 28 27 26 27 27 24 19 15 11
19 19 21 22 21 20 19 21 22 23 21 21 22 23 25 27 28 28 28 29 30 29 30 33 34 34 33 32 30 30 28 25 22 22 22 23 23 23 26 28 24 22 20 19
19 21 23 23 21 19 19 20 21 22 21 20 21 21 23 24 24 24 26 28 30 31 32 36 37 35 32 30 27 24 22 19 17 17 18 19 20 21 25 26 23 23 23 22
18 19 21 21 19 18 17 18 19 18 16 15 16 18 20 22 23 25 27 28 29 30 30 30 30 29 27 26 23 21 18 15 14 14 15 17 18 19 20 19 19 20 21 20
15 16 17 17 17 16 16 16 15 13 10 10 12 16 18 19 22 25 26 27 27 26 26 24 22 22 23 21 19 18 16 12 11 11 13 13 14 16 16 13 14 16 17 17
14 14 14 14 13 13 13 12 11 10 10 10 12 15 17 18 20 23 23 22 23 24 22 19 17 18 20 17 14 13 13 11 9 9 9 9 10 12 13 12 12 13 15 16
14 13 12 10 10 9 8 8 8 8 10 11 13 15 18 18 19 20 18 16 18 19 16 13 14 14 14 11 8 9 10 10 9 8 7 6 6 8 11 11 11 12 14 16
12 11 9 8 7 6 6 7 7 8 9 11 13 14 16 17 17 16 14 11 11 10 9 8 8 8 7 6 5 6 8 9 8 8 7 6 6 7 8 10 9 9 11 13
10 10 8 6 6 7 7 6 6 7 9 10 10 11 12 12 11 10 9 7 4 3 4 4 3 2 2 3 3 4 5 6 6 7 7 6 5 6 6 7 6 5 6 7
10 9 8 6 5 7 7 6 4 5 7 8 7 7 7 6 5 4 3 2 1 1 1 1 0 0 0 1 1 1 3 4 4 4 4 3 3 3 4 4 4 4 4 4
10 10 8 5 4 5 6 5 4 3 4 4 4 3 3 2 1 0 0 0 0 0 0 0 0 0 0 0 0 0 1 3 3 2 1 1 1 1 2 3 3 4 4 3
11 10 8 6 4 4 3 3 3 2 1 1 1 1 0 0 0 0 0 0 0 0 0 0 0 0 0 0 0 0 1 2 2 1 0 1 1 2 2 2 3 3 2 2
10 10 9 6 4 2 1 1 1 1 0 0 0 0 0 0 0 0 0 0 0 0 0 0 0 0 0 0 0 0 0 1 1 0 1 2 3 3 2 1 1 1 1 0

GEFSNGP_con_probscp_300.txt.gz
Probability
0 0 0 0 0 0 0 0 0 0 0 1 5 9 15 23 29 28 26 24 22 22 22 20 20 21 22 22 19 18 20 18 15 13 14 14 15 16 15 14 14 12 11 11
0 0 0 0 0 0 0 0 0 0 1 2 6 11 17 25 30 30 29 27 25 23 23 22 22 22 24 23 21 20 20 19 17 16 16 15 15 16 15 15 15 15 14 14
0 0 0 0 1 1 0 1 1 1 3 6 10 13 19 25 28 30 31 29 25 23 24 24 25 25 25 23 22 21 20 18 17 17 18 17 16 17 17 16 17 18 17 17
0 0 1 1 2 2 2 3 4 4 6 11 15 16 19 22 25 28 29 27 21 20 22 24 25 26 23 21 22 23 22 19 17 17 19 19 18 18 19 18 18 17 17 16
0 0 0 1 3 4 3 5 7 6 8 14 17 18 20 21 24 28 29 24 18 17 17 19 23 24 22 20 23 24 23 21 20 19 20 21 21 20 20 19 18 17 17 15
0 0 0 1 4 5 4 4 5 7 11 16 18 19 21 23 26 30 29 24 17 14 14 16 19 21 21 21 24 24 21 19 21 22 21 22 22 22 21 19 18 19 17 15
0 0 0 1 3 4 3 2 3 7 14 19 21 22 24 26 28 28 25 20 15 14 16 17 18 20 19 20 21 19 16 16 17 19 21 22 23 22 21 20 20 19 18 16
1 1 0 1 2 2 2 3 5 9 16 22 24 25 26 28 27 23 19 15 14 16 18 19 20 20 19 16 14 13 13 14 15 17 20 22 23 24 24 22 22 21 19 19
4 3 3 2 3 4 5 7 9 11 17 21 23 24 25 25 24 21 17 15 14 15 17 18 19 19 18 14 12 11 12 12 13 16 20 23 24 25 25 24 24 23 21 21
9 8 8 7 7 8 10 11 13 15 18 21 23 22 21 21 22 22 21 18 15 14 14 14 16 18 17 16 14 13 12 11 11 14 18 21 22 22 22 22 23 22 21 20
12 12 11 10 10 11 12 13 15 18 20 21 21 20 18 18 20 22 21 18 14 13 13 12 13 16 18 19 17 15 13 11 10 12 16 18 18 17 16 16 17 17 17 16
11 11 11 12 11 11 12 13 15 18 19 19 17 15 15 16 18 19 17 14 12 11 12 12 12 14 16 17 17 16 15 12 10 11 14 17 16 14 11 8 8 9 9 9
8 9 10 11 11 11 12 13 14 16 17 16 13 11 11 13 14 14 12 11 9 9 11 12 12 13 14 14 14 15 15 13 11 11 14 16 15 13 10 6 4 4 3 2
8 8 9 10 9 11 13 15 15 15 14 13 11 10 9 10 10 9 9 9 8 9 11 12 12 12 12 12 12 12 12 12 12 12 14 16 15 15 13 11 9 6 2 1
9 9 9 9 9 11 13 15 15 13 11 10 9 7 6 5 4 4 6 10 10 9 9 10 9 9 9 10 10 10 10 10 11 13 14 13 14 16 15 13 11 8 6 5
10 10 10 11 11 12 13 14 13 11 9 8 6 4 3 2 1 1 4 9 11 10 9 7 6 7 8 9 10 11 11 10 11 11 11 11 12 13 12 10 8 7 7 7
9 10 11 12 12 12 12 11 10 9 8 6 3 2 1 0 0 1 3 8 11 11 9 7 6 7 8 8 8 10 11 11 10 10 10 10 10 10 8 6 4 4 4 4
8 9 10 11 10 11 10 8 7 5 4 3 2 2 1 1 1 3 5 8 10 10 9 8 7 7 7 6 6 8 10 10 10 10 9 9 9 8 6 3 2 2 1 1
7 7 8 8 7 7 7 5 3 2 1 1 2 2 3 3 3 4 6 8 9 9 8 8 7 7 6 4 4 5 7 9 9 9 8 7 7 6 4 2 1 1 1 2
6 6 6 6 5 5 3 2 1 0 0 1 2 3 3 4 4 5 7 7 7 7 7 7 6 6 6 4 4 4 5 7 8 8 6 5 5 4 4 3 2 2 3 3
5 5 5 4 3 3 1 0 0 0 0 1 2 3 4 5 5 6 6 5 5 5 6 6 6 6 6 5 4 3 4 4 4 4 3 3 3 4 4 4 3 3 3 2
4 4 4 3 1 1 0 0 0 0 1 1 2 3 4 5 6 6 4 3 2 2 3 3 4 5 6 5 4 3 3 2 2 1 1 1 2 3 3 3 2 2 1 1
2 2 1 1 0 0 0 0 0 0 1 2 3 3 4 4 4 4 3 1 0 1 1 1 1 3 3 3 3 2 1 1 1 0 0 0 1 1 1 1 1 1 0 0
1 0 0 0 0 0 0 0 0 0 1 1 2 3 2 2 2 2 2 1 0 0 0 0 0 1 1 1 1 1 0 0 0 0 0 0 0 0 0 0 0 0 0 0
0 0 0 0 0 0 0 0 0 0 1 1 2 1 1 1 1 0 0 0 0 0 0 0 0 0 0 0 0 0 0 0 0 0 0 0 0 0 0 0 0 0 0 0
0 0 0 0 0 0 0 1 1 1 1 1 1 0 0 0 0 0 0 0 0 0 0 0 0 0 0 0 0 0 0 0 0 0 0 0 0 0 0 0 0 0 0 0
0 0 0 0 0 0 1 2 2 2 1 1 0 0 0 0 0 0 0 0 0 0 0 0 0 0 0 0 0 0 0 0 0 0 0 0 0 0 0 0 0 0 0 0